TimePDT,TemperatureF,Dew PointF,Humidity,Sea Level PressureIn,VisibilityMPH,Wind Direction,Wind SpeedMPH,Gust SpeedMPH,PrecipitationIn,Events,Conditions,WindDirDegrees,DateUTC
12:15 AM,57.2,48.2,72,30.13,10.0,North,3.5,-,N/A,,Clear,350,2013-07-04 07:15:00
12:35 AM,57.2,48.2,72,30.13,10.0,North,5.8,-,N/A,,Partly Cloudy,360,2013-07-04 07:35:00
12:55 AM,57.2,48.2,72,30.14,10.0,North,3.5,-,N/A,,Clear,10,2013-07-04 07:55:00
1:15 AM,57.2,48.2,72,30.13,10.0,NNE,3.5,-,N/A,,Clear,20,2013-07-04 08:15:00
1:35 AM,57.2,48.2,72,30.13,10.0,NNW,3.5,-,N/A,,Clear,330,2013-07-04 08:35:00
1:55 AM,55.4,48.2,77,30.13,10.0,Calm,Calm,-,N/A,,Clear,0,2013-07-04 08:55:00
2:15 AM,57.2,48.2,72,30.13,10.0,NNW,3.5,-,N/A,,Clear,330,2013-07-04 09:15:00
2:35 AM,55.4,48.2,77,30.14,10.0,Calm,Calm,-,N/A,,Clear,0,2013-07-04 09:35:00
2:55 AM,55.4,48.2,77,30.14,10.0,Calm,Calm,-,N/A,,Clear,0,2013-07-04 09:55:00
3:15 AM,53.6,48.2,82,30.14,10.0,Calm,Calm,-,N/A,,Scattered Clouds,0,2013-07-04 10:15:00
3:35 AM,53.6,48.2,82,30.14,10.0,Calm,Calm,-,N/A,,Overcast,0,2013-07-04 10:35:00
3:55 AM,53.6,48.2,82,30.13,10.0,Calm,Calm,-,N/A,,Mostly Cloudy,0,2013-07-04 10:55:00
4:15 AM,53.6,48.2,82,30.13,10.0,NNW,3.5,-,N/A,,Mostly Cloudy,340,2013-07-04 11:15:00
4:35 AM,55.4,48.2,77,30.13,10.0,Calm,Calm,-,N/A,,Mostly Cloudy,0,2013-07-04 11:35:00
4:55 AM,55.4,48.2,77,30.13,10.0,NW,4.6,-,N/A,,Partly Cloudy,320,2013-07-04 11:55:00
5:15 AM,53.6,48.2,82,30.13,10.0,Calm,Calm,-,N/A,,Mostly Cloudy,0,2013-07-04 12:15:00
5:35 AM,53.6,46.4,77,30.14,10.0,WNW,3.5,-,N/A,,Partly Cloudy,290,2013-07-04 12:35:00
5:55 AM,51.8,46.4,82,30.14,10.0,Calm,Calm,-,N/A,,Clear,0,2013-07-04 12:55:00
6:15 AM,51.8,46.4,82,30.14,10.0,West,3.5,-,N/A,,Clear,270,2013-07-04 13:15:00
6:35 AM,51.8,46.4,82,30.14,10.0,Calm,Calm,-,N/A,,Clear,0,2013-07-04 13:35:00
6:55 AM,53.6,46.4,77,30.14,10.0,Calm,Calm,-,N/A,,Clear,0,2013-07-04 13:55:00
7:15 AM,55.4,48.2,77,30.14,10.0,Calm,Calm,-,N/A,,Clear,0,2013-07-04 14:15:00
7:35 AM,57.2,48.2,72,30.15,10.0,Calm,Calm,-,N/A,,Clear,0,2013-07-04 14:35:00
7:55 AM,57.2,48.2,72,30.15,10.0,North,3.5,-,N/A,,Clear,10,2013-07-04 14:55:00
8:15 AM,59.0,48.2,67,30.15,10.0,North,3.5,-,N/A,,Clear,350,2013-07-04 15:15:00
8:35 AM,60.8,48.2,63,30.16,10.0,NW,6.9,-,N/A,,Scattered Clouds,310,2013-07-04 15:35:00
8:55 AM,62.6,48.2,59,30.16,10.0,NW,6.9,-,N/A,,Mostly Cloudy,310,2013-07-04 15:55:00
9:15 AM,62.6,48.2,59,30.16,10.0,WNW,3.5,-,N/A,,Overcast,300,2013-07-04 16:15:00
9:35 AM,62.6,48.2,59,30.16,10.0,NNW,4.6,-,N/A,,Overcast,330,2013-07-04 16:35:00
9:55 AM,62.6,48.2,59,30.15,10.0,West,5.8,-,N/A,,Overcast,270,2013-07-04 16:55:00
10:15 AM,62.6,48.2,59,30.15,10.0,North,4.6,-,N/A,,Overcast,360,2013-07-04 17:15:00
10:35 AM,64.4,48.2,56,30.15,10.0,North,5.8,-,N/A,,Overcast,350,2013-07-04 17:35:00
10:55 AM,64.4,48.2,56,30.14,10.0,Calm,Calm,-,N/A,,Overcast,0,2013-07-04 17:55:00
11:15 AM,64.4,48.2,56,30.14,10.0,WNW,4.6,-,N/A,,Overcast,290,2013-07-04 18:15:00
11:35 AM,66.2,50.0,56,30.14,10.0,Calm,Calm,-,N/A,,Overcast,0,2013-07-04 18:35:00
11:55 AM,66.2,50.0,56,30.13,10.0,Calm,Calm,-,N/A,,Overcast,0,2013-07-04 18:55:00
12:15 PM,66.2,51.8,60,30.14,10.0,West,3.5,-,N/A,,Overcast,260,2013-07-04 19:15:00
12:35 PM,66.2,51.8,60,30.14,10.0,WNW,3.5,-,N/A,,Overcast,290,2013-07-04 19:35:00
12:55 PM,68.0,51.8,56,30.13,10.0,WSW,4.6,-,N/A,,Overcast,250,2013-07-04 19:55:00
1:15 PM,66.2,51.8,60,30.13,10.0,West,8.1,-,N/A,,Overcast,260,2013-07-04 20:15:00
1:35 PM,68.0,51.8,56,30.13,10.0,WNW,8.1,-,N/A,,Overcast,290,2013-07-04 20:35:00
1:55 PM,69.8,51.8,53,30.12,10.0,West,6.9,-,N/A,,Overcast,280,2013-07-04 20:55:00
2:15 PM,69.8,51.8,53,30.12,10.0,West,9.2,-,N/A,,Overcast,270,2013-07-04 21:15:00
2:35 PM,69.8,51.8,53,30.11,10.0,WSW,5.8,18.4,N/A,,Overcast,250,2013-07-04 21:35:00
2:55 PM,69.8,51.8,53,30.11,10.0,West,10.4,-,N/A,,Mostly Cloudy,260,2013-07-04 21:55:00
3:15 PM,71.6,53.6,53,30.10,10.0,West,8.1,-,N/A,,Mostly Cloudy,260,2013-07-04 22:15:00
3:35 PM,71.6,53.6,53,30.10,10.0,WNW,8.1,-,N/A,,Overcast,290,2013-07-04 22:35:00
3:55 PM,71.6,51.8,50,30.09,10.0,West,8.1,19.6,N/A,,Mostly Cloudy,280,2013-07-04 22:55:00
4:15 PM,71.6,51.8,50,30.09,10.0,WNW,6.9,18.4,N/A,,Scattered Clouds,300,2013-07-04 23:15:00
4:35 PM,71.6,51.8,50,30.09,10.0,West,9.2,18.4,N/A,,Clear,280,2013-07-04 23:35:00
4:55 PM,69.8,51.8,53,30.08,10.0,WNW,6.9,-,N/A,,Clear,290,2013-07-04 23:55:00
5:15 PM,69.8,51.8,53,30.08,10.0,West,11.5,19.6,N/A,,Clear,280,2013-07-05 00:15:00
5:35 PM,69.8,51.8,53,30.08,10.0,WNW,11.5,18.4,N/A,,Clear,290,2013-07-05 00:35:00
5:55 PM,69.8,51.8,53,30.08,10.0,West,10.4,19.6,N/A,,Mostly Cloudy,280,2013-07-05 00:55:00
6:15 PM,68.0,51.8,56,30.08,10.0,West,6.9,-,N/A,,Overcast,280,2013-07-05 01:15:00
6:35 PM,68.0,50.0,52,30.08,10.0,WNW,8.1,-,N/A,,Overcast,300,2013-07-05 01:35:00
6:55 PM,66.2,50.0,56,30.08,10.0,West,10.4,18.4,N/A,,Overcast,280,2013-07-05 01:55:00
7:15 PM,66.2,50.0,56,30.07,10.0,WNW,8.1,19.6,N/A,,Mostly Cloudy,290,2013-07-05 02:15:00
7:35 PM,64.4,48.2,56,30.07,10.0,WNW,9.2,17.3,N/A,,Partly Cloudy,300,2013-07-05 02:35:00
7:55 PM,64.4,50.0,59,30.08,10.0,WNW,9.2,17.3,N/A,,Mostly Cloudy,290,2013-07-05 02:55:00
8:15 PM,64.4,50.0,59,30.08,10.0,West,9.2,17.3,N/A,,Overcast,280,2013-07-05 03:15:00
8:35 PM,62.6,48.2,59,30.08,10.0,WNW,6.9,18.4,N/A,,Overcast,300,2013-07-05 03:35:00
8:55 PM,62.6,48.2,59,30.08,10.0,WNW,5.8,-,N/A,,Overcast,290,2013-07-05 03:55:00
9:15 PM,62.6,48.2,59,30.08,10.0,WNW,5.8,-,N/A,,Overcast,290,2013-07-05 04:15:00
9:35 PM,60.8,48.2,63,30.08,10.0,WNW,6.9,-,N/A,,Scattered Clouds,300,2013-07-05 04:35:00
9:55 PM,60.8,48.2,63,30.09,10.0,NW,4.6,-,N/A,,Clear,310,2013-07-05 04:55:00
10:15 PM,60.8,48.2,63,30.09,10.0,NW,3.5,-,N/A,,Clear,310,2013-07-05 05:15:00
10:35 PM,60.8,48.2,63,30.09,9.0,NNW,3.5,-,N/A,,Clear,330,2013-07-05 05:35:00
10:55 PM,59.0,48.2,67,30.09,10.0,WNW,3.5,-,N/A,,Clear,300,2013-07-05 05:55:00
11:15 PM,59.0,48.2,67,30.08,10.0,Calm,Calm,-,N/A,,Scattered Clouds,0,2013-07-05 06:15:00
11:35 PM,59.0,48.2,67,30.08,10.0,Calm,Calm,-,N/A,,Mostly Cloudy,0,2013-07-05 06:35:00
11:55 PM,57.2,48.2,72,30.08,10.0,NNE,3.5,-,N/A,,Partly Cloudy,30,2013-07-05 06:55:00